This is the latest recevied weather packets stored in our database for station/object KI5NXU. If no packets are shown the sender has not sent any weather packets the latest 10 day(s).
| Time | Temp. | Humidity | Pressure | Rain* | Wind** | Luminosity | Snow |
|---|---|---|---|---|---|---|---|
| 1778024322 | 22.78° C | 62% | 1005.7 hPa | 0 mm | - | 80 W/m² | - |
| 1778024020 | 23.33° C | 61% | 1005.9 hPa | 0 mm | - | 102 W/m² | - |
| 1778023718 | 23.33° C | 60% | 1005.8 hPa | 0 mm | - | 136 W/m² | - |
| 1778023416 | 23.33° C | 61% | 1005.8 hPa | 0 mm | - | 81 W/m² | - |
| 1778023112 | 23.33° C | 63% | 1005.6 hPa | 0 mm | - | 80 W/m² | - |
| 1778022810 | 23.33° C | 62% | 1005.8 hPa | 0 mm | - | 93 W/m² | - |
| 1778022507 | 23.33° C | 62% | 1005.8 hPa | 0 mm | - | 89 W/m² | - |
| 1778022205 | 23.89° C | 61% | 1005.4 hPa | 0 mm | - | 103 W/m² | - |
| 1778021902 | 24.44° C | 62% | 1005.2 hPa | 0 mm | - | 118 W/m² | - |
| 1778021599 | 24.44° C | 62% | 1005.1 hPa | 0 mm | - | 263 W/m² | - |
| 1778021299 | 24.44° C | 63% | 1004.9 hPa | 0 mm | - | 138 W/m² | - |
| 1778020997 | 25.56° C | 58% | 1005.1 hPa | 0 mm | - | 177 W/m² | - |
| 1778020694 | 25.56° C | 59% | 1004.9 hPa | 0 mm | - | 453 W/m² | - |
| 1778020391 | 25.56° C | 60% | 1004.8 hPa | 0 mm | - | 227 W/m² | - |
| 1778020087 | 25° C | 60% | 1004.9 hPa | 0 mm | - | 354 W/m² | - |
| 1778019783 | 25.56° C | 62% | 1004.9 hPa | 0 mm | - | 145 W/m² | - |
| 1778019480 | 25° C | 60% | 1004.9 hPa | 0 mm | - | 140 W/m² | - |
| 1778019177 | 25° C | 61% | 1004.5 hPa | 0 mm | - | 91 W/m² | - |
| 1778018874 | 25.56° C | 60% | 1004.9 hPa | 0 mm | - | 77 W/m² | - |
| 1778018571 | 25.56° C | 60% | 1004.9 hPa | 0 mm | - | 107 W/m² | - |
| 1778018269 | 25.56° C | 60% | 1004.9 hPa | 0 mm | - | 140 W/m² | - |
| 1778017967 | 25.56° C | 59% | 1004.9 hPa | 0 mm | - | 121 W/m² | - |
| 1778017664 | 26.11° C | 59% | 1004.9 hPa | 0 mm | - | 121 W/m² | - |
| 1778017362 | 26.11° C | 59% | 1004.9 hPa | 0 mm | - | 154 W/m² | - |
| 1778017059 | 26.67° C | 59% | 1004.9 hPa | 0 mm | - | 171 W/m² | - |
* Rain latest hour (hover to see other rain measurements)
** Current wind speed in m/s (hover to see current wind gust speed)